Regional Weather Roundup
Issued by NWS

Home | Current Version | Previous Version | Text Only | Print | Product List | Glossary On
Versions: 1 2 3 4 5 6 7 8 9 10 11 12 13 14 15 16 17 18 19 20 21 22 23 24 25 26 27 28 29 30 31 32 33 34 35 36 37 38 39 40 41 42 43 44 45 46 47 48 49 50
000
ASUS43 KBIS 180410
RWRND

NORTH DAKOTA REGIONAL WEATHER ROUNDUP
NATIONAL WEATHER SERVICE BISMARCK ND
1000 PM CST SUN DEC 17 2017

NOTE: "FAIR" INDICATES FEW OR NO CLOUDS BELOW 12,000 FEET WITH NO
SIGNIFICANT WEATHER AND/OR OBSTRUCTIONS TO VISIBILITY.


NDZ001>003-009>011-017-180500-
NORTHWEST NORTH DAKOTA

CITY           SKY/WX    TMP DP  RH WIND       PRES   REMARKS
WILLISTON      CLOUDY    32  21  64 SW7       29.67F
MINOT          CLOUDY    35  22  58 SW13      29.64F
MINOT AFB      PTCLDY    31  21  67 W9        29.63F
$$

NDZ018>021-031>035-040>046-180500-
SOUTHWEST NORTH DAKOTA

CITY           SKY/WX    TMP DP  RH WIND       PRES   REMARKS
BISMARCK       CLOUDY    36  24  62 SW9       29.75F
DICKINSON      CLOUDY    34  20  56 W14       29.70F
GARRISON         N/A     33  25  72 W10       29.68F
HETTINGER ARPT CLOUDY    32  20  61 W10       29.77F
$$

NDZ004>008-012>016-024-026-027-054-180500-
NORTHEAST NORTH DAKOTA

CITY           SKY/WX    TMP DP  RH WIND       PRES   REMARKS
GRAND FORKS    MOCLDY    23  22  96 S12       29.76F WCI  12
GRND FRKS AFB  CLOUDY    30  24  78 S12       29.74F
DEVILS LAKE    CLOUDY    32  24  72 S17       29.67F
$$

NDZ022-023-025-028>030-036>039-047>053-180500-
SOUTHEAST NORTH DAKOTA

CITY           SKY/WX    TMP DP  RH WIND       PRES   REMARKS
FARGO          CLOUDY    31  31 100 S12       29.83F FOG
JAMESTOWN      CLOUDY    31  24  75 S9        29.75F
$$





USA.gov is the U.S. government's official web portal to all federal, state and local government web resources and services.